Regional Weather Roundup
Issued by NWS Green Bay, WI

Home | Current Version | Previous Version | Graphics & Text | Print | Product List | Glossary Off
Versions: 1 2 3 4 5 6 7 8 9 10 11 12 13 14 15 16 17 18 19 20 21 22 23 24 25 26 27 28 29 30 31 32 33 34 35 36 37 38 39 40 41 42 43 44 45 46 47 48 49 50

000
ASUS43 KGRB 281010
RWRGRB

NORTH-CENTRAL AND NORTHEAST WISCONSIN REGIONAL WEATHER ROUNDUP
NATIONAL WEATHER SERVICE GREEN BAY WI
500 AM CDT TUE APR 28 2015

WIZ005-009-010>012-018-019-281100-
NORTH CENTRAL WISCONSIN

CITY           SKY/WX    TMP DP  RH WIND       PRES   REMARKS
IRONWOOD       CLEAR     30  30 100 CALM      30.13S
MANITOWISH WTR CLEAR     28  28 100 CALM      30.15S
ARBOR VITAE    CLEAR     32  28  86 CALM      30.15S
EAGLE RIVER    CLEAR     28  28  99 CALM      30.15S
LAND O LAKES   CLEAR     27  26  99 CALM      30.16R
RHINELANDER    CLEAR     26  22  84 CALM      30.16S
PHILLIPS       CLEAR     29  27  90 CALM      30.15S
ANTIGO         CLEAR     31  30  95 CALM      30.16S
TOMAHAWK       CLEAR     27  26  93 CALM      30.17S
MERRILL        CLEAR     28  27  96 CALM      30.17S
$$

WIZ013-073-281100-
NORTHEAST WISCONSIN

CITY           SKY/WX    TMP DP  RH WIND       PRES   REMARKS
IRON MOUNTAIN  CLEAR     29  26  89 CALM      30.15S
MARINETTE      CLEAR     34  28  80 NW5       30.17R
OCONTO         CLEAR     29  29 100 CALM      30.17S
$$

WIZ017-030-035>037-045-281100-
CENTRAL WISCONSIN

CITY           SKY/WX    TMP DP  RH WIND       PRES   REMARKS
MEDFORD          N/A     36  32  85 SE3       30.16S
WAUSAU         CLEAR     37  33  85 CALM      30.15S
MOSINEE        CLEAR     37  34  87 CALM      30.17S
MARSHFIELD     CLEAR     39  33  79 CALM      30.17R
WISC RAPIDS      N/A     34  31  88 CALM      30.18S
STEVENS POINT  CLEAR     30  29  94 CALM      30.17S
WAUPACA        CLEAR     35  32  90 CALM      30.17F
SHAWANO        CLEAR     34  32  92 CALM      30.18S
CLINTONVILLE   CLEAR     32  32 100 CALM      30.17S
$$

WIZ038-039-048-051-281100-
FOX VALLEY

CITY           SKY/WX    TMP DP  RH WIND       PRES   REMARKS
NWS GREEN BAY  CLEAR     35  32  88 NW3       30.17R
APPLETON       CLEAR     36  30  80 N5        30.17S
OSHKOSH        CLEAR     35  31  85 CALM      30.16S
FOND DU LAC    CLEAR     31  28  89 CALM      30.17R
$$

WIZ022-050-052-281100-
EAST CENTRAL WISCONSIN

CITY           SKY/WX    TMP DP  RH WIND       PRES   REMARKS
STURGEON BAY   CLEAR     36  30  80 CALM      30.18S
MANITOWOC      CLEAR     38  33  82 NW5       30.17R
SHEBOYGAN      CLEAR     35  31  85 NW6       30.16R
$$

LMZ563-521-522-541>543-281100-
LAKESHORE

STATION/POSITION TIME  TEMP    WIND        PRES    VSBY  WAVE
                       AIR SEA DIR/SP/G                  HT/PER
                 (UTC) (F)     (DEG/KT/KT) (MB)    (MI)  (FT/S)
SHEBOYGAN LKSHOR 1000   42      10/ 12/ 13 1021.9R
KEWAUNEE LKSHORE 1000   36     300/  2/  5 1020.4R
NORTHPORT PIER   1000   38     300/  4/  7 1021.3R
SISTER BAY LKSHO 0900   38        CALM       N/A
CHAMBERS ISLAND  1000   35     270/  2/  4 1021.7R
MENOMINEE LKSHOR 1000          290/  5/  6 1022.1R
$$


USA.gov is the U.S. government's official web portal to all federal, state and local government web resources and services.